Temp
55 51 48 54 56 56 54 53 52 54 63 59 56 56 61 67 64 63 66 68 67 66 64 61 59 59 60 60 60 60 59 58 58 58 58 58 58 59 60 61 62 62 63 63
53 49 58 60 58 55 53 51 51 56 62 59 56 56 62 65 66 64 67 69 69 61 59 58 57 59 62 61 61 59 59 58 59 58 58 59 59 59 60 61 62 63 63 62
52 57 63 59 55 52 52 51 52 51 60 59 55 53 56 64 64 65 65 64 63 62 59 57 57 58 61 60 60 60 59 59 59 60 59 58 58 59 59 59 60 61 62 62
54 62 59 56 54 56 48 58 57 55 53 44 53 37 52 57 62 63 65 64 64 62 58 56 56 56 60 60 60 60 59 59 60 60 59 59 58 57 57 58 59 60 62 62
50 55 56 54 56 60 53 63 57 57 50 43 48 41 50 53 55 62 64 65 64 60 57 56 56 58 60 59 59 59 59 59 60 60 60 59 58 57 58 58 59 60 60 63
55 61 61 59 62 62 63 56 52 49 44 38 48 45 44 50 58 60 62 64 61 56 55 55 57 60 57 58 58 58 59 59 59 60 60 60 59 58 57 57 57 57 58 60
50 53 57 62 56 57 56 46 34 29 29 34 50 44 52 56 60 63 65 64 56 53 53 56 58 58 56 57 57 58 59 59 59 60 60 60 59 59 58 58 57 57 57 59
41 38 53 60 56 53 54 50 36 30 31 40 48 42 52 60 65 64 65 62 55 52 54 57 59 58 58 58 57 59 58 58 59 60 60 60 60 58 57 58 57 56 57 58
42 43 56 62 64 62 53 45 54 42 45 38 42 50 59 61 63 63 59 56 53 51 53 56 58 58 57 57 57 59 58 59 59 61 59 59 59 58 58 58 58 57 58 59
47 40 55 59 61 63 54 57 43 44 32 30 41 44 48 54 59 60 56 55 51 51 54 56 57 56 57 58 58 58 59 59 60 60 60 60 60 59 59 58 58 58 58 60
47 44 47 53 51 51 48 47 44 48 39 34 32 41 53 58 61 61 59 56 52 53 55 57 56 57 58 57 57 58 58 60 60 60 60 62 60 60 59 59 58 58 59 59
43 39 40 47 55 62 60 54 48 45 37 43 40 42 58 59 59 59 59 56 53 54 56 57 58 56 56 56 57 58 58 60 60 61 61 62 62 60 58 59 58 59 59 60
43 36 34 40 47 50 53 56 57 46 42 43 42 43 60 58 59 58 57 55 54 54 54 55 55 57 57 56 57 58 59 60 61 62 61 61 61 59 58 58 58 59 59 60
44 35 35 39 44 48 46 53 56 51 40 42 48 48 55 57 58 57 56 54 54 55 56 58 56 56 56 57 58 59 59 60 61 61 61 61 60 60 59 59 59 59 60 60
38 30 38 40 48 51 51 53 54 51 54 47 50 51 55 60 58 56 55 54 56 56 57 58 58 56 56 56 58 60 60 60 60 61 61 61 60 60 59 59 59 60 60 61
37 30 36 36 47 50 50 53 55 56 56 55 51 53 61 59 58 57 58 57 57 58 59 60 60 58 57 58 58 60 60 60 60 60 62 61 61 61 60 59 60 60 60 61
35 34 32 29 40 46 42 52 53 53 57 58 51 62 57 56 59 58 57 59 60 60 61 61 61 61 60 60 61 59 60 60 60 61 63 62 62 62 61 60 60 60 59 60
37 36 37 29 36 32 47 51 58 56 49 49 57 57 59 63 65 64 65 62 62 62 63 63 63 62 60 61 60 60 60 60 61 61 63 63 63 63 61 60 60 58 58 59
44 38 33 27 28 43 43 44 41 41 41 46 46 49 51 55 61 59 64 65 66 65 66 65 65 63 59 61 62 60 60 60 61 61 62 63 63 62 60 60 58 58 57 57
42 41 35 30 27 32 39 46 51 50 40 47 47 47 48 50 55 60 63 65 64 64 67 65 65 63 61 61 61 60 60 59 61 62 63 63 64 62 61 59 58 58 58 58
34 35 30 29 26 38 46 49 52 40 38 47 48 48 48 46 56 55 60 65 68 67 67 65 64 64 63 61 62 61 59 60 64 65 64 62 62 62 61 58 58 58 57 57
33 31 34 36 33 34 49 48 39 45 46 48 49 49 49 50 54 56 61 64 64 65 66 66 65 64 63 63 64 62 60 64 64 64 64 62 60 65 62 60 58 58 57 56
32 35 33 36 36 47 52 50 53 52 46 49 49 52 52 51 53 55 60 63 67 67 68 68 67 64 63 64 66 63 63 62 63 62 62 60 60 62 61 60 58 58 56 57
38 42 37 37 41 43 48 54 55 54 50 52 53 53 54 51 55 55 59 63 66 68 69 69 67 64 62 65 67 68 64 65 64 62 60 59 59 59 60 62 61 60 58 57
36 38 37 37 42 45 52 53 53 54 53 54 55 55 55 54 56 55 57 64 68 68 69 69 67 65 65 65 67 66 65 66 64 62 61 59 60 60 60 61 60 62 61 61
39 37 36 35 43 42 46 52 55 53 52 53 53 53 57 57 57 58 58 62 68 67 69 69 68 66 66 67 68 66 68 67 64 62 61 60 61 60 61 60 56 44 47 48
MSLP
1007.23 1007.42 1005.08 1005.89 1006.76 1007.09 1007.39 1007.47 1006.73 1005.88 1005.93 1005.95 1005.20 1004.80 1004.19 1003.04 1003.10 1002.58 1002.23 1001.98 1001.40 1001.08 1001.01 1001.37 1002.06 1003.16 1004.22 1004.92 1005.79 1006.55 1007.53 1008.33 1008.87 1009.48 1009.79 1009.77 1009.51 1009.51 1009.33 1009.30 1009.21 1009.26 1009.45 1009.51
1006.83 1003.84 1004.54 1005.50 1006.04 1006.55 1006.92 1007.10 1006.41 1005.86 1006.14 1006.00 1005.24 1004.70 1003.77 1002.92 1002.05 1001.93 1001.71 1001.24 1000.81 1001.07 1001.35 1001.89 1002.47 1003.06 1003.41 1004.26 1005.24 1006.41 1007.37 1008.17 1008.56 1008.89 1008.99 1008.88 1009.21 1009.30 1009.27 1009.24 1009.07 1009.06 1009.07 1009.22
1003.67 1001.72 1004.51 1004.87 1005.38 1006.02 1006.23 1006.34 1005.99 1006.22 1006.20 1005.77 1005.36 1004.68 1003.61 1002.17 1001.73 1001.16 1000.88 1000.60 1000.30 1000.63 1001.11 1001.81 1002.66 1003.15 1003.72 1004.52 1005.54 1006.25 1007.16 1007.92 1008.33 1008.43 1008.58 1008.92 1009.22 1009.25 1009.26 1009.22 1009.09 1009.11 1008.94 1008.97
1003.61 1003.65 1003.22 1003.96 1004.23 1004.96 1005.30 1005.16 1005.85 1006.41 1007.01 1006.61 1005.81 1005.04 1004.13 1002.68 1001.40 1000.69 1000.16 999.87 1000.01 1000.43 1001.75 1002.08 1002.92 1003.64 1004.11 1004.95 1005.57 1006.14 1007.10 1007.77 1007.99 1008.12 1008.46 1008.84 1009.18 1009.41 1009.32 1009.24 1009.20 1009.14 1008.94 1008.91
1001.54 1002.11 1002.73 1002.66 1001.93 1003.77 1003.78 1004.78 1005.51 1006.22 1006.68 1006.77 1006.27 1006.17 1003.52 1002.69 1001.49 1000.46 999.82 999.41 999.69 1000.54 1001.42 1002.44 1003.08 1003.59 1004.32 1005.05 1005.70 1006.30 1007.09 1007.58 1007.72 1007.98 1008.35 1008.74 1009.00 1009.19 1009.16 1009.20 1009.23 1009.17 1009.04 1009.08
1001.34 1001.06 1001.40 1001.14 1002.37 1003.13 1003.75 1004.80 1005.52 1006.22 1006.99 1006.52 1005.95 1006.18 1003.12 1002.20 1000.51 1000.00 999.29 999.48 1000.01 1000.82 1001.83 1002.62 1003.48 1003.99 1004.66 1005.35 1005.92 1006.56 1007.10 1007.44 1007.70 1008.02 1008.32 1008.57 1008.83 1008.99 1009.18 1009.25 1009.29 1009.34 1009.30 1009.24
1001.57 1001.14 1000.78 1001.07 1002.24 1002.61 1003.56 1005.02 1006.83 1007.03 1007.45 1006.60 1005.12 1005.12 1001.79 1000.25 999.78 999.32 999.12 999.42 1000.41 1001.86 1002.01 1002.93 1003.43 1004.10 1004.99 1005.70 1006.15 1006.60 1007.02 1007.46 1007.69 1008.00 1008.26 1008.48 1008.71 1008.94 1009.15 1009.17 1009.33 1009.42 1009.41 1009.46
1001.41 1001.28 1000.63 1000.14 1000.54 1001.43 1002.69 1004.21 1005.65 1007.00 1006.97 1005.85 1004.10 1003.23 999.69 998.88 998.67 998.48 998.78 999.52 1000.80 1002.37 1002.45 1002.98 1003.44 1004.04 1004.85 1005.55 1006.11 1006.55 1007.00 1007.40 1007.64 1007.94 1008.23 1008.40 1008.65 1009.00 1009.06 1009.18 1009.27 1009.35 1009.48 1009.64
1001.17 1000.66 999.40 999.27 999.54 1000.73 1001.92 1003.03 1004.06 1005.52 1005.70 1005.44 1003.84 1001.27 999.13 997.95 997.79 997.96 998.64 999.86 1001.11 1002.42 1002.70 1002.92 1003.57 1004.07 1004.83 1005.44 1006.01 1006.35 1006.92 1007.31 1007.55 1007.79 1008.18 1008.39 1008.70 1008.87 1009.05 1009.17 1009.20 1009.36 1009.63 1009.77
1000.83 1000.61 999.33 999.00 999.57 999.70 1000.10 1001.91 1003.84 1004.89 1005.29 1005.13 1003.20 1001.60 999.52 998.20 997.91 998.07 999.09 1000.20 1001.52 1002.43 1003.02 1003.18 1003.77 1004.27 1004.79 1005.35 1005.81 1006.33 1006.73 1007.06 1007.34 1007.69 1008.02 1008.28 1008.53 1008.76 1009.09 1009.20 1009.23 1009.44 1009.79 1009.86
1001.69 1001.05 999.78 999.03 998.15 998.94 1000.18 1001.25 1002.15 1003.19 1004.19 1003.98 1003.39 1000.76 998.54 997.96 997.76 998.33 998.76 999.93 1001.41 1001.84 1002.60 1003.07 1003.72 1004.29 1004.74 1005.37 1005.95 1006.42 1006.78 1007.05 1007.28 1007.60 1007.97 1008.13 1008.35 1008.78 1009.10 1009.19 1009.36 1009.57 1009.83 1009.92
1003.83 1002.44 1001.02 999.34 997.94 998.19 998.75 999.52 1000.70 1001.88 1002.84 1002.90 1002.21 999.94 997.75 997.37 997.50 998.20 998.98 999.91 1001.34 1002.17 1002.43 1003.02 1003.59 1004.30 1005.01 1005.44 1006.09 1006.48 1006.72 1006.95 1007.12 1007.50 1007.82 1008.06 1008.19 1008.76 1009.08 1009.20 1009.41 1009.62 1009.91 1010.02
1005.38 1003.65 1002.36 1000.50 999.12 998.43 998.22 998.83 999.89 1000.66 1001.77 1001.67 1001.63 999.46 997.65 997.35 997.47 998.08 999.19 1000.00 1001.30 1002.15 1002.71 1003.23 1003.93 1004.48 1005.00 1005.46 1005.96 1006.40 1006.59 1006.75 1007.07 1007.47 1007.72 1008.08 1008.27 1008.80 1009.00 1009.17 1009.39 1009.65 1009.91 1010.11
1006.25 1004.91 1003.05 1000.47 998.65 998.21 998.34 998.53 999.14 1000.21 1000.75 1000.59 999.05 998.77 997.85 997.58 997.93 998.33 999.11 1000.14 1001.09 1002.01 1002.58 1003.04 1003.86 1004.34 1004.84 1005.34 1005.78 1006.18 1006.43 1006.67 1006.98 1007.41 1007.72 1007.99 1008.32 1008.70 1008.93 1009.09 1009.32 1009.63 1009.95 1010.08
1007.47 1006.13 1004.06 1001.68 999.90 998.83 998.00 997.94 998.55 999.01 999.29 999.66 998.73 998.46 997.83 997.55 997.62 998.26 998.77 1000.08 1000.94 1001.71 1002.27 1002.59 1003.38 1004.01 1004.73 1005.21 1005.64 1005.99 1006.17 1006.56 1006.94 1007.38 1007.77 1008.02 1008.38 1008.68 1009.00 1009.14 1009.32 1009.63 1009.93 1010.19
1007.57 1006.49 1005.10 1002.66 1000.74 999.22 998.69 998.08 997.98 997.74 998.52 999.02 998.64 997.73 996.90 996.86 997.39 998.47 998.37 999.41 1000.22 1000.91 1001.53 1002.17 1002.86 1003.47 1004.30 1004.75 1005.27 1005.82 1006.11 1006.50 1006.87 1007.27 1007.71 1008.05 1008.41 1008.76 1009.15 1009.30 1009.47 1009.77 1009.99 1010.20
1007.99 1007.10 1005.77 1003.74 1001.96 1000.14 998.93 997.35 997.93 998.18 998.36 998.27 998.47 996.48 997.28 997.29 997.31 997.55 997.62 998.41 999.11 999.85 1000.58 1001.35 1002.04 1002.74 1003.56 1004.12 1004.71 1005.48 1005.94 1006.36 1006.78 1007.12 1007.62 1008.01 1008.38 1008.78 1009.28 1009.47 1009.73 1009.94 1010.25 1010.37
1007.58 1007.46 1006.49 1004.83 1002.57 1000.78 998.76 998.00 997.54 998.33 999.48 999.32 998.80 997.98 997.22 996.31 995.73 995.63 995.90 996.81 997.98 998.99 999.95 1000.59 1001.33 1002.30 1003.07 1003.64 1004.35 1004.95 1005.68 1006.23 1006.64 1007.09 1007.48 1007.93 1008.24 1008.72 1009.27 1009.73 1010.11 1010.31 1010.50 1010.74
1007.04 1007.02 1006.26 1005.27 1003.36 1000.76 1000.06 1000.70 1001.11 1000.47 1001.52 1001.54 1000.80 999.81 999.02 997.77 996.84 995.65 995.51 995.64 996.11 997.10 998.20 999.19 1000.19 1001.36 1002.39 1003.14 1003.80 1004.72 1005.57 1006.09 1006.50 1006.90 1007.33 1007.79 1008.22 1008.68 1009.21 1009.68 1010.18 1010.49 1010.70 1011.01
1006.75 1005.43 1006.23 1005.30 1004.21 1002.48 1003.36 1001.87 1001.38 1001.56 1002.41 1002.36 1002.08 1001.33 1000.43 999.11 998.06 995.88 994.89 995.32 996.17 997.04 997.91 998.75 999.84 1000.96 1001.89 1002.74 1003.43 1004.43 1005.19 1005.88 1006.26 1006.51 1006.83 1007.38 1007.95 1008.43 1009.10 1009.56 1010.05 1010.44 1010.75 1011.03
1006.68 1006.50 1006.12 1005.54 1004.47 1003.24 1003.14 1001.46 1000.43 1002.38 1003.88 1002.90 1002.49 1001.92 1001.07 1000.10 998.03 997.22 996.37 994.83 995.12 995.82 997.04 998.30 999.45 1000.27 1001.09 1002.24 1003.06 1003.99 1004.69 1005.27 1005.54 1005.97 1006.51 1007.18 1007.71 1008.18 1008.66 1009.39 1009.93 1010.32 1010.85 1011.29
1006.88 1006.75 1006.12 1005.45 1004.64 1004.08 1003.13 1002.11 1002.69 1004.26 1003.70 1003.19 1002.54 1001.85 1000.86 999.89 998.50 997.35 996.39 995.89 994.97 995.70 996.94 997.92 998.82 999.88 1000.69 1001.65 1002.52 1003.52 1004.13 1004.37 1005.17 1005.73 1006.33 1006.97 1007.51 1007.96 1008.68 1009.28 1009.87 1010.35 1010.77 1011.40
1007.57 1007.52 1007.03 1006.56 1005.62 1004.68 1004.21 1003.97 1003.90 1003.89 1003.70 1002.97 1002.22 1001.29 1000.50 999.56 998.27 997.04 995.87 995.29 995.33 994.98 995.84 996.86 997.95 999.26 1000.23 1000.90 1001.61 1002.57 1003.18 1004.09 1004.85 1005.59 1006.13 1006.78 1007.40 1007.95 1008.44 1009.12 1009.83 1010.53 1010.84 1011.29
1007.60 1007.62 1007.39 1006.65 1005.69 1004.87 1004.17 1003.71 1003.70 1003.48 1003.25 1002.57 1001.88 1001.11 1000.24 999.35 998.06 996.78 995.43 994.86 994.91 994.89 995.39 996.24 997.49 998.56 999.58 1000.29 1000.78 1001.14 1002.49 1003.47 1004.43 1005.31 1005.94 1006.51 1007.27 1007.95 1008.47 1008.92 1009.50 1010.17 1010.81 1011.32
1007.99 1008.18 1007.46 1006.62 1005.89 1004.73 1003.67 1003.84 1003.58 1003.08 1002.78 1002.27 1001.62 1000.78 999.90 998.99 997.69 996.73 995.47 994.36 994.14 994.76 994.91 995.63 996.50 997.50 998.41 999.54 1000.34 1001.02 1001.82 1002.88 1003.99 1004.84 1005.65 1006.37 1006.96 1007.59 1008.32 1008.85 1009.34 1009.68 1010.00 1010.31
1008.66 1008.11 1007.24 1006.74 1006.45 1006.31 1004.88 1004.13 1003.61 1003.14 1002.62 1002.05 1001.48 1000.37 999.29 998.38 997.42 996.45 995.38 994.01 993.80 994.16 994.92 995.05 995.80 996.79 997.74 998.69 999.55 1000.44 1001.12 1001.98 1003.14 1004.38 1005.24 1005.90 1006.55 1007.25 1007.88 1008.64 1009.54 1009.83 1009.82 1010.01
Wind_Speed
7 8 23 22 15 7 6 14 14 2 4 6 10 9 15 18 7 10 14 15 14 13 5 4 9 12 11 11 13 11 10 7 5 2 2 3 2 2 2 2 4 4 4 4
6 30 20 11 14 13 8 12 17 10 3 7 10 13 16 16 16 10 15 19 15 6 3 4 7 11 16 16 14 11 9 8 5 3 3 2 2 1 2 2 1 3 4 4
27 21 12 15 10 13 14 18 17 11 7 6 7 13 12 13 9 7 11 12 9 10 10 7 9 9 12 15 13 12 9 8 6 5 2 3 2 1 2 1 1 2 2 3
18 21 21 13 19 16 19 16 15 12 4 9 6 7 10 10 17 9 12 9 10 7 1 6 8 9 13 11 9 9 8 8 6 6 3 3 3 1 2 1 0 1 1 2
14 18 24 24 24 20 13 7 7 7 7 2 5 6 7 5 10 14 12 11 10 5 8 9 9 12 11 10 9 8 8 7 6 5 4 4 2 2 1 1 1 0 2 2
14 5 20 15 8 13 5 3 4 4 1 9 14 7 5 7 12 7 6 5 4 6 8 9 8 12 8 7 7 7 8 6 5 5 4 5 4 4 2 0 0 1 1 2
5 9 3 8 15 4 7 8 2 5 1 6 6 7 15 10 9 9 12 8 3 3 11 12 16 12 9 9 8 7 7 6 6 5 4 5 4 3 2 2 1 1 1 2
8 6 15 7 11 14 15 10 8 7 4 5 6 9 11 13 14 11 10 4 8 7 9 12 13 12 12 9 8 8 7 6 6 5 5 4 4 3 2 2 1 2 1 3
9 8 3 14 8 18 12 12 12 2 2 1 5 8 9 6 9 5 1 4 7 7 8 12 11 10 10 9 9 9 8 5 6 5 5 4 4 4 3 2 2 3 2 2
3 3 7 14 8 19 10 12 7 7 7 4 6 5 7 2 6 4 5 8 7 7 8 10 9 10 7 7 7 7 7 7 6 5 5 4 5 5 4 3 4 5 3 2
2 3 4 10 14 17 6 7 3 9 5 6 1 8 8 9 9 9 9 9 9 13 12 12 9 7 8 7 7 7 6 7 5 5 5 5 5 5 4 3 4 4 3 3
3 2 4 11 8 20 22 16 9 8 5 4 4 8 3 9 7 7 7 8 7 6 9 10 11 9 8 8 7 7 6 6 5 5 5 4 5 5 5 4 4 4 4 2
9 5 2 5 3 2 22 19 16 6 4 14 8 7 3 5 6 5 8 9 8 7 9 8 8 9 8 7 7 6 6 6 5 5 5 5 5 5 5 5 4 4 4 4
8 4 5 10 6 6 5 15 19 12 5 3 12 1 5 3 7 5 7 7 9 8 10 10 8 8 7 7 7 6 6 5 6 5 5 6 5 5 5 5 5 5 4 4
2 4 5 11 13 7 6 13 19 18 21 14 5 8 7 8 9 7 8 9 11 11 11 13 12 9 7 7 6 5 5 6 6 6 6 5 5 5 5 5 5 5 5 4
3 5 6 5 7 16 13 10 16 23 21 18 3 11 9 3 6 6 11 12 12 13 13 12 12 11 10 10 8 6 6 6 6 6 6 6 6 6 5 5 5 5 4 4
3 4 7 5 7 4 10 18 11 9 12 18 13 24 5 4 8 10 11 13 15 15 15 15 15 14 12 11 10 8 7 6 6 6 6 6 6 7 5 5 5 5 4 3
4 5 2 5 5 6 3 12 9 14 8 8 8 5 7 11 17 12 12 16 15 14 14 14 13 11 9 8 8 7 7 7 7 6 6 6 7 7 6 6 4 4 3 4
8 2 3 2 3 4 7 12 10 5 4 10 10 12 10 14 7 1 7 11 20 21 18 15 14 13 10 12 10 8 7 7 7 7 7 6 6 8 7 7 6 3 4 3
8 11 6 0 2 4 8 16 7 3 4 13 12 12 14 12 4 7 12 11 10 11 13 14 14 10 13 11 11 10 8 8 8 8 9 7 7 10 9 7 7 4 3 4
2 1 4 2 2 1 14 18 1 7 6 14 11 11 10 6 6 16 16 9 14 15 18 13 14 15 15 11 13 11 9 10 11 8 7 7 7 9 9 8 4 5 5 5
2 2 0 3 2 3 16 5 9 5 6 8 11 8 13 14 17 14 12 8 15 17 16 15 15 13 12 13 14 12 12 12 7 8 8 7 7 6 6 9 5 5 7 6
2 3 2 5 3 7 10 1 1 4 8 9 9 14 12 15 15 15 11 9 13 18 18 16 16 13 11 14 15 15 13 8 8 8 8 7 7 5 7 8 8 5 5 6
1 1 0 4 6 13 16 5 6 10 10 13 12 13 12 14 14 15 11 7 9 12 16 15 15 15 15 14 16 15 13 12 11 10 7 7 9 6 5 4 6 7 6 4
1 3 3 2 7 13 6 10 14 17 14 13 14 13 12 13 13 10 10 8 11 11 13 15 16 15 16 14 13 10 14 14 12 10 8 7 6 9 7 5 5 7 7 10
4 4 1 1 2 6 12 14 18 16 13 14 13 17 17 13 15 12 10 7 9 11 11 14 14 13 14 16 15 12 15 16 14 11 7 7 7 7 7 7 4 7 1 9
Wind_Direction
183 196 215 205 206 206 203 230 244 249 199 239 241 265 268 280 254 269 274 275 275 264 290 167 142 137 135 139 145 151 151 172 151 152 175 217 207 235 279 259 230 213 214 199
173 228 217 190 203 210 211 239 253 268 220 236 272 272 273 277 273 246 265 272 269 246 217 148 145 156 162 156 152 146 156 165 177 167 194 144 147 225 252 269 258 215 213 203
202 222 196 194 190 202 215 224 241 248 316 254 311 289 270 280 277 259 251 246 267 232 204 181 161 157 145 153 152 153 161 169 182 181 118 80 65 13 338 300 20 267 226 200
234 221 192 193 208 188 221 218 242 265 278 268 140 280 302 301 299 287 280 293 272 241 296 125 140 143 152 145 144 139 152 169 185 166 128 147 153 195 237 248 289 282 92 130
211 179 208 207 208 200 234 203 222 231 228 238 253 278 269 272 282 282 276 269 265 226 161 161 149 143 137 137 149 147 155 171 164 157 152 145 153 214 215 115 116 326 33 139
218 208 199 201 179 205 136 199 41 37 67 257 260 204 221 226 236 261 265 269 313 131 125 112 117 136 126 126 133 147 159 170 156 159 162 146 179 195 173 138 271 339 1 88
163 224 170 152 210 157 135 98 283 337 302 228 191 182 248 255 231 225 256 271 113 206 126 139 149 145 134 149 153 153 164 155 166 176 157 158 194 183 155 174 217 144 168 107
170 207 195 173 181 191 196 165 153 200 220 254 159 206 249 224 232 238 249 203 143 171 141 153 150 146 151 153 155 158 158 149 171 172 155 162 168 135 139 178 169 137 147 129
178 238 189 189 157 175 197 190 177 20 189 318 225 280 309 226 255 264 161 150 153 161 156 150 152 147 149 153 163 160 159 163 175 180 159 165 168 142 150 148 126 108 110 131
226 162 195 210 182 188 156 143 175 202 197 219 272 268 234 231 241 293 229 197 161 149 153 150 150 150 151 156 153 154 165 165 181 179 162 181 172 146 154 155 128 129 126 115
7 150 282 140 195 184 165 171 157 166 160 165 274 262 215 229 226 233 221 172 180 158 163 159 149 156 150 144 152 167 163 159 171 163 160 192 161 150 159 146 138 143 129 136
312 313 234 214 166 194 199 193 158 187 196 207 162 267 211 229 255 233 225 152 141 168 152 153 153 144 147 157 159 180 169 173 186 165 167 186 158 141 161 148 151 145 138 154
342 296 185 4 309 172 201 207 208 115 107 206 207 254 306 329 304 251 191 146 137 151 133 131 135 155 161 163 170 181 184 188 171 157 161 157 154 142 152 157 154 144 139 144
354 278 271 217 208 141 148 203 208 198 200 206 223 272 277 280 259 241 143 140 137 145 151 152 154 161 162 169 171 183 189 176 156 154 153 154 151 145 145 142 133 128 141 139
8 277 310 301 289 282 171 180 200 203 214 211 222 241 249 248 238 235 138 129 142 151 164 169 168 164 168 165 174 185 174 162 158 154 157 159 130 121 126 128 123 126 131 131
297 283 342 284 261 274 266 254 215 199 208 230 243 253 227 266 128 188 153 158 165 172 179 169 170 164 172 174 176 181 177 169 160 162 164 145 130 126 128 132 137 134 133 129
287 338 352 302 339 242 258 235 228 208 226 206 195 235 147 201 215 194 166 174 175 180 175 172 177 176 176 177 169 181 183 153 168 165 158 149 140 131 141 140 138 139 139 136
220 300 263 267 302 168 265 26 218 203 51 351 272 325 231 202 213 186 184 176 176 172 180 177 173 174 172 172 163 165 151 168 167 169 166 150 147 142 143 135 137 120 114 138
204 207 247 183 260 265 21 22 352 14 75 8 343 341 339 334 340 249 184 178 181 179 181 175 169 170 157 169 167 159 159 165 166 174 174 165 156 152 152 149 152 150 130 122
305 211 199 85 208 172 356 320 292 149 179 356 346 334 333 330 157 240 183 171 161 157 168 164 162 159 160 176 159 157 173 165 186 184 183 165 155 155 165 159 162 147 131 129
52 39 178 227 240 30 346 324 191 148 287 317 323 318 317 298 266 311 305 193 171 163 165 152 156 167 176 162 160 172 168 187 196 181 161 159 162 164 165 155 158 143 131 120
117 313 161 183 223 127 355 3 63 274 284 286 314 308 306 298 299 297 285 248 151 150 155 164 162 173 166 163 165 173 185 196 166 164 164 164 169 161 146 161 149 143 135 130
90 39 327 5 25 331 342 339 292 286 273 306 305 316 314 309 307 306 277 205 193 164 168 169 169 161 166 168 174 177 193 161 157 158 171 164 156 162 154 148 146 138 143 147
121 238 215 326 332 317 306 286 350 339 319 307 311 315 319 307 312 306 276 200 183 177 170 163 159 168 170 177 180 190 162 166 162 171 175 159 160 156 155 143 157 154 161 158
209 214 215 255 305 323 59 340 333 326 322 319 320 323 328 318 316 297 301 208 182 191 160 163 170 174 175 171 183 165 160 160 168 172 172 166 165 169 164 153 170 177 187 176
197 205 23 64 286 279 283 318 319 324 315 321 321 322 333 335 324 319 299 250 180 165 182 166 173 165 166 172 173 168 166 165 165 169 170 178 170 172 168 163 144 48 33 207